星链-1521 (STARLINK-1521 )

导读

STARLINK-1521是美国太空探索技术公司 SpaceX 星链计划中的卫星,于2020年6月13日从美国发射升空,属于星链低轨互联网星座组网卫星。星链旨在为全球提供高速低延迟互联网服务,该卫星入轨后承担星座组网任务,推进全球覆盖的卫星互联网部署。

基本信息
目录编号:
45768
目录名称:
STARLINK-1521
国际标识:
2020-038AQ
轨道中心:
EARTH
卫星名称:
星链-1521
卫星全名:
星链-1521 (STARLINK-1521 )
卫星状态:
已陨落 最后检测时间 2024-03-09
发射日期:
2020-06-13 UTC
国别 :
美国 (US)
星等 :
--
该卫星已列入 空间交会检测服务 Space Conjunction Data Service (SCDS) ,当前飞行风险评估等级: 无高风险
轨道信息
数据来源 国际轨道数据
星历时间: 2024-03-09T20:32:47+0800
轨道信息已过期917天
半长轴: 6548.296km
偏心率: 0.0006252
轨道倾角: 53.030°
近地点辐角 324.145°
升交点赤经 190.844°
平近点角 104.641°
近地点: 166.067km
远地点: 174.255km
周期: 87.893分钟
每日圈数: 16.38364
详细信息
固有亮度:
5
最大亮度:
2.5
卫星平台:
Starlink V1.0
覆盖范围:
全球
运营商:
太空探索技术公司
运营商所在国:
美国
制造商(研发单位):
太空探索技术公司
制造商所在国:
美国
使用方式:
暂无
卫星简介
星链(Starlink)计划是由太空探索技术公司(SpaceX)提出的一个巨型低轨卫星互联网星座项目,计划在2019年至2024年间在太空搭建由约1.2万颗卫星组成的“星链”网络,其中1584颗将部署在地球上空550千米处的近地轨道,并从2020年开始工作。该卫星已陨落。
与全量物体交会距离演化趋势
与全量物体交会风险概率演化趋势